sat.trackr.live / text

‹ back to catalog

STARLINK-34402

NORAD 64446 · 2025-130J

PAYLOAD ACTIVE UNKNOWN

§ Identity

Operator
Country
US
Launch date
2025-06-18
Launch site
AFETR
Launch vehicle
Mass (kg)
RCS (m²)

Purposes: comms

External: N2YO · Heavens-Above · Gunter

§ Orbital elements

Epoch: 2026-05-25T03:32:19.447584Z

Period
94.10 min
Inclination
53.1573°
Eccentricity
0.0001152
Mean motion
15.30207269 rev/d
Perigee alt
474.4 km
Apogee alt
476.0 km
Semi-major
6,853.3 km
B*
3.3054e-4
RAAN
93.0754°
Arg perigee
91.7199°
Mean anomaly
268.3933°
Rev number
5,241

§ Raw data

STARLINK-344021 64446U 25130J   26145.14744731  .00009445  00000+0  33054-3 0  99932 64446  53.1573  93.0754 0001152  91.7199 268.3933 15.30207269 52414

JSON: /api/v1/satellites/64446 · /tle

For live sub-satellite position, see the globe view (requires WebGL).

§ Visibility from observer

Set your observer location to see the next 7 days of passes ≥ 10°. The values pass through the URL so the page stays shareable.

No JS? Fill the form by hand. The geolocation button needs JavaScript.